Upington, South Africa

9:50 AM SAST on February 23, 2017 (GMT +0200)
Upington

Weather History for FAUP - January, 2013

Change the Weather History Date:

Tuesday, January 8, 2013

  Actual Average Record
Temperature  
Mean Temperature 88 °F -  
Max Temperature 106 °F 93 °F 109 °F (2012)
Min Temperature 69 °F 66 °F 51 °F (2002)
Cooling Degree Days 22    
Growing Degree Days 38 (Base 50)    
Moisture  
Dew Point 41 °F    
Average Humidity 20    
Maximum Humidity 40    
Minimum Humidity 7    
Precipitation  
Precipitation 0.00 in 0.04 in - ()
Sea Level Pressure  
Sea Level Pressure 29.95 in    
Wind  
Wind Speed 6 mph ()    
Max Wind Speed 14 mph    
Max Gust Speed 25 mph    
Visibility 7.3 miles    
Events      
Averages and records for this station are not official NWS values.
T = Trace of Precipitation, MM = Missing Value Source: Averaged Metar Reports

Daily Weather History Graph

Daily Weather History Graph

Search for Another Location

Airport or City:

Trip Planner

Search our weather history database for the weather conditions in past years. The results will help you decide how hot, cold, wet, or windy it might be!

Date:

Astronomy

Jan. 08, 2013 Rise Set
Actual Time 5:46 AM SAST 7:36 PM SAST
Civil Twilight 5:19 AM SAST 8:03 PM SAST
Nautical Twilight 4:47 AM SAST 8:35 PM SAST
Astronomical Twilight 4:13 AM SAST 9:09 PM SAST
Moon 2:13 AM SAST (1/8) 4:13 PM SAST (1/8)
Length of Visible Light 14h 43m
Length of Day
13h 50m
Waning Crescent, 16% of the Moon is Illuminated
Jan 8
Waning Crescent
Jan 11
New
Jan 19
First Quarter
Jan 27
Full
Feb 3
Last Quarter

Hourly Weather History & Observations

Time (SAST) Temp. Dew Point Humidity Pressure Visibility Wind Dir Wind Speed Gust Speed Precip Events Conditions
12:00 AM 80.6 °F 32.0 °F 17% 29.98 in - Calm Calm - N/A   Unknown
1:00 AM 77.0 °F 35.6 °F 22% 29.95 in - WSW 4.6 mph - N/A   Clear
2:00 AM 76 °F 37 °F 14%  in 25 mi WSW 8.1 mph - -  
2:00 AM 75.2 °F 35.6 °F 24% 29.95 in - WSW 6.9 mph - N/A   Clear
3:00 AM 73.4 °F 41.0 °F 31% 29.95 in - SSW 4.6 mph - N/A   Clear
4:00 AM 73.4 °F 42.8 °F 33% 29.98 in - NNW 9.2 mph 21.9 mph N/A   Clear
5:00 AM 71 °F 43 °F 26%  in 25 mi WSW 6.9 mph - -  
5:00 AM 69.8 °F 42.8 °F 38% 29.98 in - WSW 6.9 mph - N/A   Clear
6:00 AM 69.8 °F 44.6 °F 40% 30.01 in - WSW 3.5 mph - N/A   Unknown
7:00 AM 73.4 °F 42.8 °F 33% 30.04 in - SW 8.1 mph - N/A   Clear
8:00 AM 79 °F 42 °F 17%  in 25 mi SSW 10.4 mph - -   Scattered Clouds
8:00 AM 78.8 °F 41.0 °F 26% 30.04 in - SSW 10.4 mph - N/A   Clear
9:00 AM 80.6 °F 42.8 °F 26% 30.04 in - SSW 6.9 mph - N/A   Clear
10:00 AM 84.2 °F 42.8 °F 23% 30.04 in - SSW 5.8 mph - N/A   Clear
10:42 AM 89.6 °F 42.8 °F 20% 30.01 in - SSW 4.6 mph - N/A   Clear
11:00 AM 90 °F 42 °F 10%  in 19 mi South 5.8 mph - -   Haze
11:00 AM 89.6 °F 41.0 °F 18% 30.01 in - South 4.6 mph - N/A   Clear
11:22 AM 93.2 °F 41.0 °F 16% 30.01 in - West 2.3 mph - N/A   Clear
12:00 PM 93.2 °F 39.2 °F 15% 30.01 in 6.2 mi SW 3.5 mph - N/A   Partly Cloudy
12:39 PM 98.6 °F 42.8 °F 15% 29.98 in 6.2 mi WNW 5.8 mph - N/A   Partly Cloudy
1:00 PM 98.6 °F 42.8 °F 15% 29.95 in 6.2 mi WNW 9.2 mph - N/A   Partly Cloudy
2:00 PM 102.2 °F 44.6 °F 14% 29.92 in 6.2 mi NW 11.5 mph 25.3 mph N/A   Partly Cloudy
3:00 PM 102.2 °F 41.0 °F 12% 29.92 in 6.2 mi WNW 13.8 mph - N/A   Partly Cloudy
3:35 PM 105.8 °F 42.8 °F 12% 29.89 in 6.2 mi West 13.8 mph - N/A   Partly Cloudy
4:00 PM 104.0 °F 39.2 °F 11% 29.89 in 6.2 mi WNW 12.7 mph - N/A   Partly Cloudy
5:00 PM 102.2 °F 37.4 °F 11% 29.83 in 6.2 mi WNW 11.5 mph - N/A   Partly Cloudy
6:00 PM 102.2 °F 41.0 °F 12% 29.83 in 6.2 mi West 12.7 mph - N/A   Partly Cloudy
7:00 PM 96.8 °F 41.0 °F 15% 29.86 in 6.2 mi SSW 13.8 mph - N/A   Partly Cloudy
8:00 PM 93.2 °F 42.8 °F 17% 29.86 in 6.2 mi SSW 8.1 mph - N/A   Partly Cloudy
9:00 PM 87.8 °F 42.8 °F 21% 29.86 in - SSW 5.8 mph - N/A   Unknown
10:00 PM 86.0 °F 41.0 °F 20% 29.89 in - SSW 2.3 mph - N/A   Unknown
11:00 PM 89 °F 34 °F 7%  in - East 3.5 mph - -  
11:00 PM 87.8 °F 33.8 °F 15% 29.92 in - East 3.5 mph - N/A   Unknown